Weather History for Chesapeake, VA

Change the Weather History Date:

Monday, October 3, 2011

  Actual Average (KORF) Record (KORF)
Temperature  
Mean Temperature 55 °F 66 °F  
Max Temperature 64 °F 74 °F 92 °F (1986)
Min Temperature 46 °F 59 °F 42 °F (1947)
Degree Days  
Heating Degree Days 10 2  
Month to date heating degree days 6  
Since 1 July heating degree days 17  
Cooling Degree Days 0 3  
Month to date cooling degree days 11  
Year to date cooling degree days 1576  
Growing Degree Days 5 (Base 50)    
Moisture  
Dew Point 46 °F    
Average Humidity 78    
Maximum Humidity 100    
Minimum Humidity 49    
Precipitation  
Precipitation 0.00 in 0.11 in 3.30 in (1962)
Month to date precipitation 0.32  
Year to date precipitation 37.02  
Snow  
Snow 0.00 in 0.00 in 0.00 in (2002)
Month to date snowfall 0.0  
Since 1 July snowfall 0.0  
Snow Depth -    
Sea Level Pressure  
Sea Level Pressure 30.05 in    
Wind  
Wind Speed 3 mph (WSW)    
Max Wind Speed 15 mph    
Max Gust Speed 22 mph    
Visibility 10 miles    
Events Rain    
T = Trace of Precipitation, MM = Missing Value Source: NWS Daily Summary

Daily Weather History Graph

Daily Weather History Graph

Search for Another Location

Airport:

Trip Planner

Search our weather history database for the weather conditions in past years. The results will help you decide how hot, cold, wet, or windy it might be!

Date:

Astronomy

Oct. 03, 2011 Rise Set
Actual Time 7:01 AM EDT 6:46 PM EDT
Civil Twilight 6:36 AM EDT 7:11 PM EDT
Nautical Twilight 6:06 AM EDT 7:41 PM EDT
Astronomical Twilight 5:36 AM EDT 8:11 PM EDT
Moon 1:49 PM EDT (10/3) 11:54 PM EDT (10/3)
Length of Visible Light 12h 35m
Length of Day
11h 44m
Waxing Crescent, 45% of the Moon is Illuminated
Oct 3
Waxing Crescent
Oct 3
First Quarter
Oct 11
Full
Oct 19
Last Quarter
Oct 26
New

Hourly Weather History & Observations

Time (EDT) Temp. Windchill Dew Point Humidity Pressure Visibility Wind Dir Wind Speed Gust Speed Precip Events Conditions
12:15 AM 48.2 °F - 46.4 °F 93% 30.03 in 10.0 mi Calm Calm - N/A   Clear
12:35 AM 48.2 °F - 46.4 °F 93% 30.02 in 10.0 mi Calm Calm - N/A   Clear
1:35 AM 48.2 °F - 46.4 °F 93% 30.02 in 10.0 mi Calm Calm - N/A   Clear
1:55 AM 48.2 °F - 46.4 °F 93% 30.01 in 10.0 mi Calm Calm - N/A   Clear
2:15 AM 48.2 °F - 46.4 °F 93% 30.01 in 10.0 mi Calm Calm - N/A   Clear
2:35 AM 48.2 °F - 46.4 °F 93% 30.01 in 10.0 mi Calm Calm - N/A   Scattered Clouds
2:55 AM 48.2 °F - 46.4 °F 93% 30.01 in 10.0 mi Calm Calm - N/A   Scattered Clouds
3:15 AM 48.2 °F - 46.4 °F 93% 30.01 in 10.0 mi South 3.5 mph - N/A   Clear
3:35 AM 48.2 °F - 46.4 °F 93% 30.00 in 10.0 mi South 3.5 mph - N/A   Clear
4:15 AM 48.2 °F - 46.4 °F 93% 30.01 in 10.0 mi South 4.6 mph - N/A   Clear
4:35 AM 48.2 °F - 46.4 °F 93% 30.01 in 10.0 mi South 4.6 mph - N/A   Mostly Cloudy
4:55 AM 46.4 °F 45.2 °F 46.4 °F 100% 30.01 in 10.0 mi SSW 3.5 mph - N/A   Mostly Cloudy
5:15 AM 46.4 °F 45.2 °F 44.6 °F 93% 30.01 in 10.0 mi South 3.5 mph - N/A   Scattered Clouds
5:35 AM 46.4 °F - 44.6 °F 93% 30.02 in 10.0 mi Calm Calm - N/A   Scattered Clouds
5:55 AM 46.4 °F 45.2 °F 46.4 °F 100% 30.03 in 10.0 mi SW 3.5 mph - N/A   Overcast
6:15 AM 48.2 °F - 46.4 °F 93% 30.03 in 10.0 mi Calm Calm - N/A   Overcast
6:35 AM 48.2 °F - 46.4 °F 93% 30.04 in 10.0 mi Calm Calm - N/A   Overcast
6:55 AM 48.2 °F - 46.4 °F 93% 30.04 in 10.0 mi Calm Calm - N/A   Mostly Cloudy
7:15 AM 48.2 °F - 44.6 °F 87% 30.04 in 10.0 mi SW 3.5 mph - N/A   Overcast
7:55 AM 51.8 °F - 46.4 °F 82% 30.05 in 10.0 mi Calm Calm - N/A   Overcast
8:15 AM 51.8 °F - 46.4 °F 82% 30.05 in 10.0 mi West 3.5 mph - N/A   Overcast
8:35 AM 51.8 °F - 46.4 °F 82% 30.05 in 10.0 mi Calm Calm - N/A   Overcast
8:55 AM 51.8 °F - 46.4 °F 82% 30.06 in 10.0 mi Calm Calm - N/A Rain Light Rain
9:15 AM 51.8 °F - 48.2 °F 88% 30.06 in 10.0 mi Calm Calm - N/A Rain Light Rain
9:35 AM 51.8 °F - 48.2 °F 88% 30.06 in 10.0 mi Calm Calm - N/A   Overcast
9:55 AM 51.8 °F - 48.2 °F 88% 30.06 in 10.0 mi Calm Calm - N/A   Overcast
10:15 AM 51.8 °F - 48.2 °F 88% 30.06 in 10.0 mi Calm Calm - N/A   Overcast
10:35 AM 51.8 °F - 48.2 °F 88% 30.07 in 10.0 mi Calm Calm - N/A   Overcast
10:55 AM 53.6 °F - 48.2 °F 82% 30.06 in 10.0 mi Calm Calm - N/A   Overcast
11:15 AM 55.4 °F - 48.2 °F 77% 30.06 in 10.0 mi South 4.6 mph - N/A   Mostly Cloudy
11:35 AM 57.2 °F - 46.4 °F 67% 30.06 in 10.0 mi SW 3.5 mph - N/A   Mostly Cloudy
11:55 AM 59.0 °F - 48.2 °F 67% 30.06 in 10.0 mi WSW 8.1 mph - N/A   Scattered Clouds
12:15 PM 60.8 °F - 46.4 °F 59% 30.06 in 10.0 mi WSW 9.2 mph 17.3 mph N/A   Scattered Clouds
12:55 PM 60.8 °F - 46.4 °F 59% 30.06 in 10.0 mi WSW 11.5 mph 17.3 mph N/A   Mostly Cloudy
1:15 PM 60.8 °F - 46.4 °F 59% 30.05 in 10.0 mi West 12.7 mph 17.3 mph N/A   Mostly Cloudy
1:35 PM 60.8 °F - 44.6 °F 55% 30.05 in 10.0 mi West 15.0 mph - N/A   Overcast
2:15 PM 62.6 °F - 46.4 °F 55% 30.04 in 10.0 mi WSW 12.7 mph - N/A   Scattered Clouds
2:35 PM 62.6 °F - 44.6 °F 52% 30.04 in 10.0 mi West 13.8 mph 20.7 mph N/A   Scattered Clouds
2:55 PM 62.6 °F - 44.6 °F 52% 30.04 in 10.0 mi West 10.4 mph 18.4 mph N/A   Clear
3:15 PM 62.6 °F - 44.6 °F 52% 30.04 in 10.0 mi West 10.4 mph 21.9 mph N/A   Scattered Clouds
3:35 PM 64.4 °F - 44.6 °F 49% 30.05 in 10.0 mi WSW 9.2 mph - N/A   Mostly Cloudy
3:55 PM 62.6 °F - 44.6 °F 52% 30.05 in 10.0 mi West 10.4 mph 16.1 mph N/A   Mostly Cloudy
4:15 PM 62.6 °F - 44.6 °F 52% 30.05 in 10.0 mi West 9.2 mph - N/A   Mostly Cloudy
4:35 PM 62.6 °F - 44.6 °F 52% 30.06 in 10.0 mi West 9.2 mph - N/A   Overcast
4:55 PM 60.8 °F - 44.6 °F 55% 30.07 in 10.0 mi West 9.2 mph 17.3 mph N/A   Mostly Cloudy
5:15 PM 60.8 °F - 46.4 °F 59% 30.08 in 10.0 mi West 9.2 mph - N/A   Mostly Cloudy
5:55 PM 60.8 °F - 46.4 °F 59% 30.10 in 10.0 mi West 6.9 mph - N/A   Overcast
6:15 PM 59.0 °F - 46.4 °F 63% 30.10 in 10.0 mi West 4.6 mph - N/A   Mostly Cloudy
6:35 PM 57.2 °F - 46.4 °F 67% 30.10 in 10.0 mi West 3.5 mph - N/A   Clear
6:55 PM 55.4 °F - 48.2 °F 77% 30.10 in 10.0 mi Calm Calm - N/A   Clear
7:15 PM 55.4 °F - 48.2 °F 77% 30.11 in 10.0 mi Calm Calm - N/A   Clear
7:35 PM 55.4 °F - 48.2 °F 77% 30.12 in 10.0 mi Calm Calm - N/A   Clear
7:55 PM 50.0 °F - 48.2 °F 94% 30.12 in 10.0 mi Calm Calm - N/A   Clear
8:15 PM 51.8 °F - 50.0 °F 94% 30.12 in 10.0 mi Calm Calm - N/A   Clear
8:35 PM 48.2 °F - 48.2 °F 100% 30.13 in 10.0 mi Calm Calm - N/A   Clear
8:55 PM 48.2 °F - 48.2 °F 100% 30.14 in 10.0 mi Calm Calm - N/A   Clear
9:15 PM 48.2 °F - 48.2 °F 100% 30.14 in 10.0 mi Calm Calm - N/A   Clear
9:35 PM 48.2 °F - 48.2 °F 100% 30.14 in 10.0 mi Calm Calm - N/A   Scattered Clouds
9:55 PM 48.2 °F - 48.2 °F 100% 30.14 in 10.0 mi Calm Calm - N/A   Overcast
10:15 PM 48.2 °F - 48.2 °F 100% 30.14 in 10.0 mi Calm Calm - N/A   Overcast
10:35 PM 50.0 °F - 48.2 °F 94% 30.14 in 10.0 mi SSW 3.5 mph - N/A   Overcast
10:55 PM 50.0 °F - 48.2 °F 94% 30.14 in 10.0 mi Calm Calm - N/A   Overcast
11:15 PM 51.8 °F - 50.0 °F 94% 30.14 in 10.0 mi Calm Calm - N/A   Overcast
11:35 PM 51.8 °F - 50.0 °F 94% 30.14 in 10.0 mi Calm Calm - N/A   Overcast
11:55 PM 51.8 °F - 51.8 °F 100% 30.14 in 10.0 mi Calm Calm - N/A   Overcast